Weather in Hargeysa

Somalia     9°33′52″N   44°03′47″E
temp.,
°C
wind,
m/s
gust,
m/s
humid.,
%
clouds,
%
prec.,
mm/h
press.,
hPa
HPBL,
m
8 may, sat
sat800:00+20sw118180 2.8 101433
03:00+20sw118146 3.6 101318
06:00+20wnw127890 0.0 101413
09:00+24nw225918 0.0 1015733
12:00+27nne4448100 0.0 10121721
15:00+27nne774394 0.0 10102201
18:00+24n6759100 0.1 1011545
21:00+22n4677100 1.6 1013210
9 may, sun
sun900:00+22nne337198 0.2 101356
03:00+21n2364100 0.2 101123
06:00+21nnw226692 0.0 101217
09:00+25n4439100 0.0 1013667
12:00+28n553493 0.0 10111411
15:00+28nne7734100 0.0 10092067
18:00+25nne6747100 0.0 1010316
21:00+23n476199 0.0 1012199
10 may, mon
mon1000:00+22n466198 0.0 1012125
03:00+22nnw3454100 0.0 101145
06:00+21n2257100 0.0 101215
09:00+25ne223551 0.0 1013554
12:00+28ne33345 0.0 10111698
15:00+29n562980 0.0 10092415
18:00+26n6841100 0.0 1010306
21:00+23n3552100 0.0 1012143
11 may, tue
tue1100:00+22nnw3449100 0.0 101148
03:00+21sw4556100 0.0 101187
06:00+20sw6980100 0.0 1013227
09:00+24wsw6654100 0.0 1014644
12:00+28nw2326100 0.0 10121900
15:00+29nne3423100 0.0 10102432
18:00+26n4634100 0.0 1010137
21:00+24n1252100 0.0 101235
12 may, wed
wed1200:00+22sw71066100 0.0 1013408
03:00+20sw91475100 0.0 1012495
06:00+19sw111671100 0.0 1014486
09:00+21wsw111466100 0.0 1014454
12:00+27w6737100 0.0 10111384
15:00+29n762597 0.0 10081950
18:00+25n6850100 0.0 1010213
21:00+23nnw335999 0.0 101247